SCP
0 0 0 0 0 0 0 0 0 0 0 0 0 0 0 0 0 0 0 0 0 0 0 0 0 1 1 1 1 1 1 1 0 0 0 0 0 0 0 0 0 0 0
0 0 0 0 0 0 0 0 0 0 0 0 0 0 0 0 0 0 0 0 0 0 0 0 0 1 1 1 1 1 1 1 1 1 0 0 0 0 0 0 0 0 0
0 0 0 0 0 0 0 0 0 0 0 0 0 0 0 0 0 0 0 0 0 0 0 0 0 0 1 1 1 1 1 1 1 1 1 1 0 0 0 0 0 0 0
0 0 0 0 0 0 0 0 0 0 0 0 0 0 0 0 0 0 0 0 0 0 0 0 0 0 0 1 1 1 1 1 1 1 1 1 1 0 0 0 0 0 0
0 0 0 0 0 0 0 0 0 0 0 0 0 0 0 0 0 0 0 0 0 0 0 0 0 0 0 0 0 1 1 1 1 1 1 1 1 0 0 0 0 0 0
0 0 0 0 0 0 0 0 0 0 0 0 0 0 0 0 0 0 0 0 0 0 0 0 0 0 0 0 0 0 0 1 1 1 1 1 1 1 0 0 0 0 0
0 0 0 0 0 0 0 0 0 0 0 0 0 0 0 0 0 0 0 0 0 0 0 0 0 0 0 0 0 0 0 0 0 1 1 1 1 1 0 0 0 0 0
0 0 0 0 0 0 0 0 0 0 0 0 0 0 0 0 0 0 0 0 0 0 0 0 0 0 0 0 0 0 0 0 0 0 0 1 1 1 0 0 0 0 0
0 0 0 0 0 0 0 0 0 0 0 0 0 0 0 0 0 0 0 0 0 0 0 0 0 0 0 0 0 0 0 0 0 0 0 0 0 0 0 0 0 0 0
0 0 0 0 0 0 0 0 0 0 0 0 0 0 0 0 0 0 0 0 0 0 0 0 0 0 0 0 0 0 0 0 0 0 0 0 0 0 0 0 0 0 0
0 0 0 0 0 0 0 0 0 0 0 0 0 0 0 0 0 0 0 0 0 0 0 0 0 0 0 0 0 0 0 0 0 0 0 0 0 0 0 0 0 0 0
0 0 0 0 0 0 0 0 0 0 0 0 0 0 0 0 0 0 0 0 0 0 0 0 0 0 0 0 0 0 0 0 0 0 0 0 0 0 0 0 0 0 0
0 0 0 0 0 0 0 0 0 0 0 0 0 0 0 0 0 0 0 0 0 0 0 0 0 0 0 0 0 0 0 0 0 0 0 0 0 0 0 0 0 0 0
0 0 0 0 0 0 0 0 0 0 0 0 0 0 0 0 0 0 0 0 0 0 0 0 0 0 0 0 0 0 0 0 0 0 0 0 0 0 0 0 0 0 0
0 0 0 0 0 0 0 0 0 0 0 0 0 0 0 0 0 0 0 0 0 0 0 0 0 0 0 0 0 0 0 0 0 0 0 0 0 0 0 0 0 0 0
0 0 0 0 0 0 0 0 0 0 0 0 0 0 0 0 0 0 0 0 0 0 0 0 0 0 0 0 0 0 0 0 0 0 0 0 0 0 0 0 0 0 0
0 0 0 0 0 0 0 0 0 0 0 0 0 0 0 0 0 0 0 0 0 0 0 0 0 0 0 0 0 0 0 0 0 0 0 0 0 0 0 0 0 0 0
0 0 0 0 0 0 0 0 0 0 0 0 0 0 0 0 0 0 0 0 0 0 0 0 0 0 0 0 0 0 0 0 0 0 0 0 0 0 0 0 0 0 0
0 0 0 0 0 0 0 0 0 0 0 0 0 0 0 0 0 0 0 0 0 0 0 0 0 0 0 0 0 0 0 0 0 0 0 0 0 0 0 0 0 0 0
0 0 0 0 0 0 0 0 0 0 0 0 0 0 0 0 0 0 0 0 0 0 0 0 0 0 0 0 0 0 0 0 0 0 0 0 0 0 0 0 0 0 0
0 0 0 0 0 0 0 0 0 0 0 0 0 0 0 0 0 0 0 0 0 0 0 0 0 0 0 0 0 0 0 0 0 0 0 0 0 0 0 0 0 0 0
0 0 0 0 0 0 0 0 0 0 0 0 0 0 0 0 0 0 0 0 0 0 0 0 0 0 0 0 0 0 0 0 0 0 0 0 0 0 0 0 0 0 0
0 0 0 0 0 0 0 0 0 0 0 0 0 0 0 0 0 0 0 0 0 0 0 0 0 0 0 0 0 0 0 0 0 0 0 0 0 0 0 0 0 0 0
0 0 0 0 0 0 0 0 0 0 0 0 0 0 0 0 0 0 0 0 0 0 0 0 0 0 0 0 0 0 0 0 0 0 0 0 0 0 0 0 0 0 0
0 0 0 0 0 0 0 0 0 0 0 0 0 0 0 0 0 0 0 0 0 0 0 0 0 0 0 0 0 0 0 0 0 0 0 0 0 0 0 0 0 0 0
0 0 0 0 0 0 0 0 0 0 0 0 0 0 0 0 0 0 0 0 0 0 0 0 0 0 0 0 0 0 0 0 0 0 0 0 0 0 0 0 0 0 0
Wind_Speed
15 15 15 15 15 15 14 14 14 14 14 14 14 14 14 13 11 10 10 9 9 8 8 9 11 11 8 8 9 9 9 8 7 5 5 6 6 5 5 5 5 5 8
15 15 16 16 16 16 16 15 14 14 15 16 15 15 15 15 14 13 13 11 11 10 9 8 9 8 10 9 8 10 9 8 8 7 6 7 7 7 7 6 6 6 8
16 16 16 16 16 16 16 16 15 15 15 16 16 16 16 16 15 15 14 13 12 11 10 10 8 9 10 8 9 9 9 9 9 7 7 6 6 7 8 7 8 7 8
16 16 16 16 16 16 16 16 16 15 15 15 16 16 17 16 16 16 15 14 13 12 11 11 10 8 7 8 8 8 7 8 9 8 7 7 7 8 8 7 6 5 6
16 16 16 16 16 16 16 16 16 16 16 16 16 16 16 15 15 16 15 15 14 13 12 12 11 11 10 7 6 6 6 6 7 8 8 7 8 9 8 7 7 7 6
16 17 17 17 17 16 16 16 16 16 16 15 15 16 16 15 13 13 14 15 13 13 12 12 11 12 14 13 11 9 7 7 6 7 8 9 10 10 9 9 9 8 5
16 16 16 16 17 17 17 17 17 16 15 15 15 15 16 16 12 11 14 14 14 13 12 11 10 10 13 12 13 12 11 10 9 6 7 8 9 10 12 13 11 10 7
16 16 16 16 17 17 17 17 16 15 14 13 14 14 14 14 12 12 13 15 14 14 13 12 12 9 11 11 11 11 11 11 11 9 8 7 6 8 12 12 11 9 9
16 16 16 16 17 17 17 17 15 14 13 13 12 13 13 12 12 13 13 12 12 14 14 13 12 12 9 9 10 10 11 10 12 11 8 6 5 6 9 10 12 11 8
16 16 16 16 17 17 16 16 14 12 12 11 11 11 11 12 11 13 14 11 11 11 11 11 10 9 9 11 11 10 10 10 10 10 9 8 8 9 13 14 14 13 11
16 16 16 16 15 15 14 13 13 11 11 10 10 9 10 10 10 12 14 10 10 10 9 10 9 13 10 11 10 9 7 6 8 10 9 9 9 9 12 12 11 12 12
15 16 16 16 14 12 13 12 11 10 9 9 8 8 7 8 8 11 14 13 9 9 8 7 7 14 13 11 9 7 5 5 7 8 8 9 10 10 9 10 9 7 5
15 15 15 15 13 12 12 11 10 7 6 6 5 5 5 5 6 10 12 13 11 9 6 2 5 12 11 10 10 8 8 8 8 8 9 9 9 10 10 8 8 7 8
15 14 13 12 12 11 9 8 7 6 5 5 5 4 4 4 6 8 10 11 12 11 9 7 9 9 8 6 8 10 9 8 8 8 8 7 8 9 10 10 10 10 9
14 13 12 11 10 9 8 6 7 6 5 6 5 4 3 3 1 1 3 6 7 8 9 8 10 10 10 10 9 9 9 8 8 8 7 7 9 10 10 10 11 10 9
12 11 9 9 8 8 8 5 1 2 3 3 4 4 3 1 2 1 1 1 1 4 7 8 9 9 10 9 8 8 9 8 8 8 8 8 10 11 11 11 11 11 12
13 11 9 9 8 8 7 7 5 1 2 3 4 3 3 3 1 2 3 3 4 6 8 8 8 8 8 8 7 7 8 7 7 7 8 8 9 11 12 13 12 11 12
13 10 10 8 8 7 7 6 5 4 3 3 4 5 3 1 1 4 6 7 6 7 8 7 7 7 7 7 7 6 6 6 6 6 7 9 10 11 13 13 13 13 13
11 8 8 9 8 7 6 5 5 5 4 3 3 4 3 3 4 4 7 6 6 7 7 7 6 6 6 6 6 6 6 6 6 6 7 9 10 12 12 13 13 16 13
9 9 10 9 7 6 6 5 5 4 4 3 3 2 2 3 3 4 5 5 4 5 5 5 5 5 5 5 5 5 5 5 7 7 7 8 10 11 13 15 14 14 12
9 8 9 8 6 6 6 6 5 4 4 3 3 4 5 3 1 2 3 3 3 3 3 4 4 4 4 4 4 5 6 6 6 7 8 8 10 11 11 12 13 12 12
9 8 7 7 6 6 6 4 4 4 4 3 2 2 2 4 2 1 1 1 1 1 1 2 2 2 2 3 4 4 6 7 7 8 9 9 10 11 12 12 12 12 11
9 9 8 7 6 4 4 3 3 4 4 3 3 2 1 1 2 2 2 1 0 0 1 1 1 2 2 2 3 4 5 7 7 9 9 10 10 10 11 12 13 13 13
9 9 8 7 7 5 4 4 3 4 4 4 3 3 2 2 2 2 2 1 1 1 1 1 2 4 5 5 4 4 5 6 7 9 11 11 11 11 11 12 13 14 13
8 8 7 7 7 6 5 4 3 3 3 3 3 3 3 3 2 2 2 1 2 2 3 3 3 4 7 8 7 6 7 6 5 9 10 10 12 13 13 14 12 13 13
8 8 7 6 6 6 5 4 3 2 2 3 3 3 3 3 3 3 3 3 3 4 4 5 7 7 8 8 11 10 7 5 5 6 8 10 12 12 13 12 15 13 14
Wind_Direction
312 312 308 304 302 298 292 287 282 278 277 271 263 259 253 248 243 237 242 242 245 252 256 259 253 250 244 231 222 219 217 222 225 190 164 144 154 150 129 114 106 102 90
312 310 306 303 301 298 295 294 290 283 275 269 263 257 253 250 245 240 240 240 238 241 243 250 256 249 245 245 231 220 215 213 220 206 176 165 163 151 133 120 107 92 91
311 308 305 304 302 301 299 297 292 285 278 271 265 257 251 249 247 242 240 240 238 238 236 235 243 251 241 238 242 231 218 208 216 212 192 164 154 147 134 120 107 104 100
310 308 305 304 303 301 298 295 292 287 280 271 264 258 252 247 243 239 236 236 236 237 234 231 226 228 242 237 237 242 233 215 207 214 195 172 160 157 151 142 128 116 107
308 306 305 305 303 300 297 294 291 287 281 274 265 258 252 246 240 234 233 233 231 234 232 228 223 215 217 234 239 235 238 229 212 208 200 181 170 168 167 157 139 121 98
307 306 306 305 303 302 300 297 293 289 284 278 269 260 251 245 236 223 228 236 232 231 232 229 223 207 210 213 228 232 233 234 229 217 207 196 185 180 168 157 148 147 135
304 303 303 304 303 302 300 297 294 290 286 278 271 263 254 248 236 212 214 234 235 232 230 227 229 209 195 204 208 216 224 231 245 246 241 221 194 184 172 168 169 168 142
304 303 304 305 303 301 299 296 294 291 287 281 272 266 258 246 222 206 205 227 236 233 229 226 227 223 206 205 203 207 216 214 217 227 242 248 230 192 182 174 156 125 114
306 307 308 307 303 301 298 297 296 292 286 279 270 265 257 246 217 199 201 224 228 231 229 224 221 221 190 190 213 212 214 212 206 213 228 257 268 201 173 154 147 143 137
310 310 307 303 300 301 300 299 297 291 284 278 267 260 253 243 214 195 202 225 225 225 221 222 218 224 179 183 217 219 219 214 202 197 207 221 217 185 172 172 166 160 148
310 307 305 302 302 301 301 299 297 294 289 280 268 259 250 238 209 192 201 226 228 227 221 211 206 183 185 190 220 229 222 224 208 200 198 201 199 190 184 183 179 172 165
309 307 305 305 306 306 305 304 303 299 293 287 271 258 246 228 210 193 197 219 245 242 237 225 189 168 180 191 212 226 213 219 223 206 202 197 191 185 182 179 174 173 163
311 309 308 308 310 309 310 310 309 302 293 291 278 260 242 220 194 187 195 208 222 239 244 232 142 160 174 195 214 212 212 220 221 214 208 200 189 177 164 153 136 119 113
312 311 311 311 314 316 314 314 315 314 307 298 287 268 240 212 203 194 195 197 203 218 227 186 160 171 212 229 192 200 218 224 221 220 209 191 174 164 160 152 144 136 130
313 312 313 315 317 314 317 325 327 336 342 318 311 298 271 236 190 170 228 213 208 205 202 204 205 197 204 212 214 212 214 212 215 220 206 184 173 163 157 151 149 148 147
313 315 315 316 317 318 325 332 30 328 356 343 321 318 309 360 33 135 218 295 134 174 207 210 210 210 210 212 213 212 212 213 215 210 196 183 173 163 155 153 155 158 156
315 315 314 316 320 325 332 335 344 79 125 72 37 5 326 338 308 185 177 171 171 184 218 223 216 213 217 218 216 217 214 207 205 204 188 179 168 160 155 156 158 160 159
316 313 311 314 321 328 335 340 346 358 32 77 81 60 51 65 155 166 164 172 177 208 227 226 221 218 220 223 221 219 213 201 196 195 188 175 165 159 157 158 160 161 160
316 319 321 317 320 333 340 347 354 9 28 45 84 98 93 121 140 160 189 223 205 202 215 223 224 222 223 224 223 219 213 200 189 184 184 172 163 159 158 158 157 159 159
315 313 310 312 321 338 348 354 7 16 28 36 42 67 140 189 168 170 207 231 233 224 222 222 225 228 229 223 215 209 201 189 181 179 173 166 159 157 156 155 155 159 163
316 318 308 307 329 345 351 357 7 16 23 30 36 40 347 303 222 190 206 222 239 242 238 235 221 220 221 211 203 195 184 173 171 164 156 155 153 152 152 152 154 158 161
316 320 322 324 331 343 345 357 7 13 25 27 39 112 270 288 311 294 263 235 238 249 259 259 240 226 211 200 186 172 162 155 151 146 147 147 146 146 147 149 154 160 166
321 325 325 323 323 323 313 3 17 13 24 26 25 24 33 353 351 355 6 20 8 279 279 233 187 153 142 143 142 146 142 140 143 145 144 141 141 142 145 151 159 163 165
324 329 331 331 330 332 348 4 17 17 19 27 28 30 35 22 13 20 27 36 44 64 83 93 119 126 131 124 116 122 127 135 145 146 145 143 144 145 147 153 160 163 165
329 335 337 335 333 335 343 357 16 22 23 25 32 35 41 41 32 38 50 68 94 110 113 121 128 134 141 139 133 127 121 134 151 147 150 148 147 148 151 156 157 160 160
336 339 339 339 337 336 336 343 3 20 29 35 32 33 36 36 42 54 68 76 87 97 112 126 132 139 149 142 129 128 132 138 149 161 155 148 148 148 152 153 154 156 157